Year,Month,Day,Hour,Minute,Value (Times are PST for temperature in C)
2010,07,10,00,00,19.00
2010,07,10,00,01,18.90
2010,07,10,00,02,18.90
2010,07,10,00,03,18.90
2010,07,10,00,04,18.90
2010,07,10,00,05,18.90
2010,07,10,00,06,18.90
2010,07,10,00,07,18.90
2010,07,10,00,08,18.90
2010,07,10,00,09,18.90
2010,07,10,00,10,18.90
2010,07,10,00,11,18.90
2010,07,10,00,12,18.80
2010,07,10,00,13,18.80
2010,07,10,00,14,18.80
2010,07,10,00,15,18.80
2010,07,10,00,16,18.80
2010,07,10,00,17,18.70
2010,07,10,00,18,18.70
2010,07,10,00,19,18.70
2010,07,10,00,20,18.70
2010,07,10,00,21,18.70
2010,07,10,00,22,18.70
2010,07,10,00,23,18.70
2010,07,10,00,24,18.60
2010,07,10,00,25,18.60
2010,07,10,00,26,18.60
2010,07,10,00,27,18.50
2010,07,10,00,28,18.50
2010,07,10,00,29,18.40
2010,07,10,00,30,18.40
2010,07,10,00,31,18.30
2010,07,10,00,32,18.30
2010,07,10,00,33,18.30
2010,07,10,00,34,18.30
2010,07,10,00,35,18.20
2010,07,10,00,36,18.20
2010,07,10,00,37,18.20
2010,07,10,00,38,18.20
2010,07,10,00,39,18.20
2010,07,10,00,40,18.20
2010,07,10,00,41,18.20
2010,07,10,00,42,18.20
2010,07,10,00,43,18.20
2010,07,10,00,44,18.20
2010,07,10,00,45,18.20
2010,07,10,00,46,18.20
2010,07,10,00,47,18.20
2010,07,10,00,48,18.20
2010,07,10,00,49,18.10
2010,07,10,00,50,18.10
2010,07,10,00,51,18.10
2010,07,10,00,52,18.10
2010,07,10,00,53,18.10
2010,07,10,00,54,18.10
2010,07,10,00,55,18.10
2010,07,10,00,56,18.10
2010,07,10,00,57,18.10
2010,07,10,00,58,18.10
2010,07,10,00,59,18.10
2010,07,10,01,00,18.10
2010,07,10,01,01,18.10
2010,07,10,01,02,18.10
2010,07,10,01,03,18.10
2010,07,10,01,04,18.10
2010,07,10,01,05,18.00
2010,07,10,01,06,17.90
2010,07,10,01,07,17.90
2010,07,10,01,08,17.90
2010,07,10,01,09,17.90
2010,07,10,01,10,17.90
2010,07,10,01,11,17.90
2010,07,10,01,12,17.90
2010,07,10,01,13,17.90
2010,07,10,01,14,17.90
2010,07,10,01,15,17.90
2010,07,10,01,16,17.90
2010,07,10,01,17,17.80
2010,07,10,01,18,17.80
2010,07,10,01,19,17.80
2010,07,10,01,20,17.80
2010,07,10,01,21,17.70
2010,07,10,01,22,17.70
2010,07,10,01,23,17.70
2010,07,10,01,24,17.60
2010,07,10,01,25,17.60
2010,07,10,01,26,17.60
2010,07,10,01,27,17.50
2010,07,10,01,28,17.50
2010,07,10,01,29,17.50
2010,07,10,01,30,17.50
2010,07,10,01,31,17.40
2010,07,10,01,32,17.40
2010,07,10,01,33,17.30
2010,07,10,01,34,17.30
2010,07,10,01,35,17.30
2010,07,10,01,36,17.30
2010,07,10,01,37,17.30
2010,07,10,01,38,17.30
2010,07,10,01,39,17.30
2010,07,10,01,40,17.30
2010,07,10,01,41,17.20
2010,07,10,01,42,17.20
2010,07,10,01,43,17.20
2010,07,10,01,44,17.20
2010,07,10,01,45,17.20
2010,07,10,01,46,17.20
2010,07,10,01,47,17.10
2010,07,10,01,48,17.10
2010,07,10,01,49,17.10
2010,07,10,01,50,17.10
2010,07,10,01,51,17.10
2010,07,10,01,52,17.10
2010,07,10,01,53,17.10
2010,07,10,01,54,17.10
2010,07,10,01,55,17.10
2010,07,10,01,56,17.10
2010,07,10,01,57,17.00
2010,07,10,01,58,17.00
2010,07,10,01,59,17.00
2010,07,10,02,00,17.00
2010,07,10,02,01,17.00
2010,07,10,02,02,17.00
2010,07,10,02,03,17.00
2010,07,10,02,04,17.00
2010,07,10,02,05,17.00
2010,07,10,02,06,17.00
2010,07,10,02,07,17.00
2010,07,10,02,08,17.00
2010,07,10,02,09,17.00
2010,07,10,02,10,17.00
2010,07,10,02,11,17.00
2010,07,10,02,12,17.00
2010,07,10,02,13,16.90
2010,07,10,02,14,16.90
2010,07,10,02,15,16.90
2010,07,10,02,16,16.90
2010,07,10,02,17,16.90
2010,07,10,02,18,16.90
2010,07,10,02,19,16.90
2010,07,10,02,20,16.90
2010,07,10,02,21,16.80
2010,07,10,02,22,16.80
2010,07,10,02,23,16.80
2010,07,10,02,24,16.80
2010,07,10,02,25,16.80
2010,07,10,02,26,16.80
2010,07,10,02,27,16.80
2010,07,10,02,28,16.80
2010,07,10,02,29,16.80
2010,07,10,02,30,16.70
2010,07,10,02,31,16.70
2010,07,10,02,32,16.70
2010,07,10,02,33,16.70
2010,07,10,02,34,16.70
2010,07,10,02,35,16.70
2010,07,10,02,36,16.70
2010,07,10,02,37,16.70
2010,07,10,02,38,16.70
2010,07,10,02,39,16.70
2010,07,10,02,40,16.60
2010,07,10,02,41,16.60
2010,07,10,02,42,16.60
2010,07,10,02,43,16.60
2010,07,10,02,44,16.60
2010,07,10,02,45,16.50
2010,07,10,02,46,16.40
2010,07,10,02,47,16.40
2010,07,10,02,48,16.40
2010,07,10,02,49,16.40
2010,07,10,02,50,16.40
2010,07,10,02,51,16.40
2010,07,10,02,52,16.40
2010,07,10,02,53,16.40
2010,07,10,02,54,16.40
2010,07,10,02,55,16.40
2010,07,10,02,56,16.40
2010,07,10,02,57,16.40
2010,07,10,02,58,16.40
2010,07,10,02,59,16.40
2010,07,10,03,00,16.30
2010,07,10,03,01,16.30
2010,07,10,03,02,16.30
2010,07,10,03,03,16.30
2010,07,10,03,04,16.30
2010,07,10,03,05,16.30
2010,07,10,03,06,16.30
2010,07,10,03,07,16.30
2010,07,10,03,08,16.30
2010,07,10,03,09,16.30
2010,07,10,03,10,16.30
2010,07,10,03,11,16.30
2010,07,10,03,12,16.30
2010,07,10,03,13,16.30
2010,07,10,03,14,16.30
2010,07,10,03,15,16.30
2010,07,10,03,16,16.30
2010,07,10,03,17,16.30
2010,07,10,03,18,16.30
2010,07,10,03,19,16.30
2010,07,10,03,20,16.40
2010,07,10,03,21,16.40
2010,07,10,03,22,16.40
2010,07,10,03,23,16.40
2010,07,10,03,24,16.40
2010,07,10,03,25,16.40
2010,07,10,03,26,16.40
2010,07,10,03,27,16.40
2010,07,10,03,28,16.40
2010,07,10,03,29,16.40
2010,07,10,03,30,16.40
2010,07,10,03,31,16.40
2010,07,10,03,32,16.40
2010,07,10,03,33,16.40
2010,07,10,03,34,16.40
2010,07,10,03,35,16.50
2010,07,10,03,36,16.60
2010,07,10,03,37,16.60
2010,07,10,03,38,16.60
2010,07,10,03,39,16.60
2010,07,10,03,40,16.60
2010,07,10,03,41,16.60
2010,07,10,03,42,16.60
2010,07,10,03,43,16.60
2010,07,10,03,44,16.70
2010,07,10,03,45,16.70
2010,07,10,03,46,16.70
2010,07,10,03,47,16.70
2010,07,10,03,48,16.70
2010,07,10,03,49,16.70
2010,07,10,03,50,16.70
2010,07,10,03,51,16.70
2010,07,10,03,52,16.70
2010,07,10,03,53,16.70
2010,07,10,03,54,16.70
2010,07,10,03,55,16.70
2010,07,10,03,56,16.70
2010,07,10,03,57,16.70
2010,07,10,03,58,16.70
2010,07,10,03,59,16.70
2010,07,10,04,00,16.70
2010,07,10,04,01,16.70
2010,07,10,04,02,16.70
2010,07,10,04,03,16.70
2010,07,10,04,04,16.70
2010,07,10,04,05,16.70
2010,07,10,04,06,16.70
2010,07,10,04,07,16.70
2010,07,10,04,08,16.70
2010,07,10,04,09,16.70
2010,07,10,04,10,16.70
2010,07,10,04,11,16.70
2010,07,10,04,12,16.70
2010,07,10,04,13,16.70
2010,07,10,04,14,16.70
2010,07,10,04,15,16.70
2010,07,10,04,16,16.70
2010,07,10,04,17,16.70
2010,07,10,04,18,16.70
2010,07,10,04,19,16.60
2010,07,10,04,20,16.60
2010,07,10,04,21,16.60
2010,07,10,04,22,16.60
2010,07,10,04,23,16.60
2010,07,10,04,24,16.60
2010,07,10,04,25,16.50
2010,07,10,04,26,16.40
2010,07,10,04,27,16.40
2010,07,10,04,28,16.40
2010,07,10,04,29,16.40
2010,07,10,04,30,16.40
2010,07,10,04,31,16.40
2010,07,10,04,32,16.40
2010,07,10,04,33,16.40
2010,07,10,04,34,16.40
2010,07,10,04,35,16.40
2010,07,10,04,36,16.40
2010,07,10,04,37,16.40
2010,07,10,04,38,16.40
2010,07,10,04,39,16.40
2010,07,10,04,40,16.40
2010,07,10,04,41,16.40
2010,07,10,04,42,16.30
2010,07,10,04,43,16.30
2010,07,10,04,44,16.30
2010,07,10,04,45,16.30
2010,07,10,04,46,16.30
2010,07,10,04,47,16.30
2010,07,10,04,48,16.30
2010,07,10,04,49,16.30
2010,07,10,04,50,16.30
2010,07,10,04,51,16.20
2010,07,10,04,52,16.20
2010,07,10,04,53,16.20
2010,07,10,04,54,16.20
2010,07,10,04,55,16.20
2010,07,10,04,56,16.10
2010,07,10,04,57,16.10
2010,07,10,04,58,16.10
2010,07,10,04,59,16.10
2010,07,10,05,00,16.10
2010,07,10,05,01,16.10
2010,07,10,05,02,16.10
2010,07,10,05,03,16.10
2010,07,10,05,04,16.10
2010,07,10,05,05,16.10
2010,07,10,05,06,16.10
2010,07,10,05,07,16.10
2010,07,10,05,08,16.10
2010,07,10,05,09,16.10
2010,07,10,05,10,16.10
2010,07,10,05,11,16.10
2010,07,10,05,12,16.10
2010,07,10,05,13,16.00
2010,07,10,05,14,15.90
2010,07,10,05,15,15.90
2010,07,10,05,16,15.90
2010,07,10,05,17,15.90
2010,07,10,05,18,15.90
2010,07,10,05,19,15.90
2010,07,10,05,20,15.90
2010,07,10,05,21,15.90
2010,07,10,05,22,15.90
2010,07,10,05,23,15.90
2010,07,10,05,24,15.80
2010,07,10,05,25,15.80
2010,07,10,05,26,15.80
2010,07,10,05,27,15.80
2010,07,10,05,28,15.80
2010,07,10,05,29,15.80
2010,07,10,05,30,15.80
2010,07,10,05,31,15.80
2010,07,10,05,32,15.80
2010,07,10,05,33,15.80
2010,07,10,05,34,15.80
2010,07,10,05,35,15.80
2010,07,10,05,36,15.80
2010,07,10,05,37,15.80
2010,07,10,05,38,15.80
2010,07,10,05,39,15.80
2010,07,10,05,40,15.80
2010,07,10,05,41,15.70
2010,07,10,05,42,15.70
2010,07,10,05,43,15.70
2010,07,10,05,44,15.70
2010,07,10,05,45,15.60
2010,07,10,05,46,15.60
2010,07,10,05,47,15.60
2010,07,10,05,48,15.60
2010,07,10,05,49,15.60
2010,07,10,05,50,15.50
2010,07,10,05,51,15.50
2010,07,10,05,52,15.50
2010,07,10,05,53,15.50
2010,07,10,05,54,15.50
2010,07,10,05,55,15.50
2010,07,10,05,56,15.50
2010,07,10,05,57,15.50
2010,07,10,05,58,15.50
2010,07,10,05,59,15.50
2010,07,10,06,00,15.50
2010,07,10,06,01,15.50
2010,07,10,06,02,15.50
2010,07,10,06,03,15.50
2010,07,10,06,04,15.50
2010,07,10,06,05,15.40
2010,07,10,06,06,15.40
2010,07,10,06,07,15.30
2010,07,10,06,08,15.30
2010,07,10,06,09,15.30
2010,07,10,06,10,15.30
2010,07,10,06,11,15.20
2010,07,10,06,12,15.20
2010,07,10,06,13,15.20
2010,07,10,06,14,15.20
2010,07,10,06,15,15.10
2010,07,10,06,16,15.10
2010,07,10,06,17,15.10
2010,07,10,06,18,15.00
2010,07,10,06,19,15.00
2010,07,10,06,20,14.90
2010,07,10,06,21,14.90
2010,07,10,06,22,14.90
2010,07,10,06,23,14.90
2010,07,10,06,24,14.90
2010,07,10,06,25,14.90
2010,07,10,06,26,14.90
2010,07,10,06,27,14.90
2010,07,10,06,28,14.80
2010,07,10,06,29,14.80
2010,07,10,06,30,14.80
2010,07,10,06,31,14.90
2010,07,10,06,32,14.90
2010,07,10,06,33,14.90
2010,07,10,06,34,14.90
2010,07,10,06,35,14.90
2010,07,10,06,36,14.90
2010,07,10,06,37,15.00
2010,07,10,06,38,15.00
2010,07,10,06,39,15.10
2010,07,10,06,40,15.10
2010,07,10,06,41,15.10
2010,07,10,06,42,15.10
2010,07,10,06,43,15.20
2010,07,10,06,44,15.20
2010,07,10,06,45,15.20
2010,07,10,06,46,15.20
2010,07,10,06,47,15.20
2010,07,10,06,48,15.20
2010,07,10,06,49,15.30
2010,07,10,06,50,15.30
2010,07,10,06,51,15.40
2010,07,10,06,52,15.40
2010,07,10,06,53,15.40
2010,07,10,06,54,15.50
2010,07,10,06,55,15.50
2010,07,10,06,56,15.50
2010,07,10,06,57,15.60
2010,07,10,06,58,15.60
2010,07,10,06,59,15.60
2010,07,10,07,00,15.70
2010,07,10,07,01,15.80
2010,07,10,07,02,15.90
2010,07,10,07,03,16.00
2010,07,10,07,04,16.10
2010,07,10,07,05,16.20
2010,07,10,07,06,16.20
2010,07,10,07,07,16.30
2010,07,10,07,08,16.30
2010,07,10,07,09,16.40
2010,07,10,07,10,16.40
2010,07,10,07,11,16.40
2010,07,10,07,12,16.40
2010,07,10,07,13,16.40
2010,07,10,07,14,16.50
2010,07,10,07,15,16.60
2010,07,10,07,16,16.60
2010,07,10,07,17,16.60
2010,07,10,07,18,16.70
2010,07,10,07,19,16.70
2010,07,10,07,20,16.90
2010,07,10,07,21,17.00
2010,07,10,07,22,17.10
2010,07,10,07,23,17.20
2010,07,10,07,24,17.10
2010,07,10,07,25,17.00
2010,07,10,07,26,16.90
2010,07,10,07,27,16.80
2010,07,10,07,28,16.80
2010,07,10,07,29,16.70
2010,07,10,07,30,16.70
2010,07,10,07,31,16.80
2010,07,10,07,32,16.80
2010,07,10,07,33,16.90
2010,07,10,07,34,17.00
2010,07,10,07,35,17.00
2010,07,10,07,36,17.00
2010,07,10,07,37,17.00
2010,07,10,07,38,16.90
2010,07,10,07,39,17.00
2010,07,10,07,40,16.90
2010,07,10,07,41,16.90
2010,07,10,07,42,16.90
2010,07,10,07,43,16.90
2010,07,10,07,44,16.90
2010,07,10,07,45,17.00
2010,07,10,07,46,17.00
2010,07,10,07,47,17.00
2010,07,10,07,48,17.10
2010,07,10,07,49,17.10
2010,07,10,07,50,17.10
2010,07,10,07,51,17.20
2010,07,10,07,52,17.20
2010,07,10,07,53,17.30
2010,07,10,07,54,17.30
2010,07,10,07,55,17.30
2010,07,10,07,56,17.20
2010,07,10,07,57,17.20
2010,07,10,07,58,17.20
2010,07,10,07,59,17.10
2010,07,10,08,00,17.10
2010,07,10,08,01,17.20
2010,07,10,08,02,17.20
2010,07,10,08,03,17.20
2010,07,10,08,04,17.20
2010,07,10,08,05,17.30
2010,07,10,08,06,17.30
2010,07,10,08,07,17.30
2010,07,10,08,08,17.30
2010,07,10,08,09,17.20
2010,07,10,08,10,17.20
2010,07,10,08,11,17.20
2010,07,10,08,12,17.20
2010,07,10,08,13,17.20
2010,07,10,08,14,17.00
2010,07,10,08,15,16.90
2010,07,10,08,16,16.80
2010,07,10,08,17,16.80
2010,07,10,08,18,16.70
2010,07,10,08,19,16.80
2010,07,10,08,20,16.70
2010,07,10,08,21,16.80
2010,07,10,08,22,16.90
2010,07,10,08,23,16.90
2010,07,10,08,24,16.90
2010,07,10,08,25,16.80
2010,07,10,08,26,16.80
2010,07,10,08,27,16.70
2010,07,10,08,28,16.70
2010,07,10,08,29,16.60
2010,07,10,08,30,16.60
2010,07,10,08,31,16.60
2010,07,10,08,32,16.50
2010,07,10,08,33,16.40
2010,07,10,08,34,16.40
2010,07,10,08,35,16.40
2010,07,10,08,36,16.40
2010,07,10,08,37,16.40
2010,07,10,08,38,16.50
2010,07,10,08,39,16.60
2010,07,10,08,40,16.60
2010,07,10,08,41,16.60
2010,07,10,08,42,16.60
2010,07,10,08,43,16.70
2010,07,10,08,44,16.70
2010,07,10,08,45,16.70
2010,07,10,08,46,16.80
2010,07,10,08,47,16.90
2010,07,10,08,48,16.90
2010,07,10,08,49,16.90
2010,07,10,08,50,16.90
2010,07,10,08,51,16.80
2010,07,10,08,52,16.80
2010,07,10,08,53,16.80
2010,07,10,08,54,16.80
2010,07,10,08,55,16.80
2010,07,10,08,56,16.90
2010,07,10,08,57,16.90
2010,07,10,08,58,16.90
2010,07,10,08,59,17.10
2010,07,10,09,00,17.30
2010,07,10,09,01,17.40
2010,07,10,09,02,17.40
2010,07,10,09,03,17.40
2010,07,10,09,04,17.40
2010,07,10,09,05,17.30
2010,07,10,09,06,17.10
2010,07,10,09,07,17.00
2010,07,10,09,08,17.00
2010,07,10,09,09,17.00
2010,07,10,09,10,17.10
2010,07,10,09,11,17.10
2010,07,10,09,12,17.10
2010,07,10,09,13,17.10
2010,07,10,09,14,17.20
2010,07,10,09,15,17.30
2010,07,10,09,16,17.20
2010,07,10,09,17,17.20
2010,07,10,09,18,17.20
2010,07,10,09,19,17.30
2010,07,10,09,20,17.40
2010,07,10,09,21,17.50
2010,07,10,09,22,17.60
2010,07,10,09,23,17.70
2010,07,10,09,24,17.70
2010,07,10,09,25,17.70
2010,07,10,09,26,17.80
2010,07,10,09,27,17.80
2010,07,10,09,28,17.90
2010,07,10,09,29,17.90
2010,07,10,09,30,17.90
2010,07,10,09,31,17.90
2010,07,10,09,32,17.90
2010,07,10,09,33,17.90
2010,07,10,09,34,17.90
2010,07,10,09,35,17.90
2010,07,10,09,36,17.90
2010,07,10,09,37,18.00
2010,07,10,09,38,18.20
2010,07,10,09,39,18.20
2010,07,10,09,40,18.20
2010,07,10,09,41,18.30
2010,07,10,09,42,18.20
2010,07,10,09,43,18.30
2010,07,10,09,44,18.40
2010,07,10,09,45,18.40
2010,07,10,09,46,18.50
2010,07,10,09,47,18.70
2010,07,10,09,48,18.80
2010,07,10,09,49,18.90
2010,07,10,09,50,19.00
2010,07,10,09,51,19.10
2010,07,10,09,52,19.20
2010,07,10,09,53,19.20
2010,07,10,09,54,19.20
2010,07,10,09,55,19.10
2010,07,10,09,56,19.20
2010,07,10,09,57,19.30
2010,07,10,09,58,19.30
2010,07,10,09,59,19.20
2010,07,10,10,00,19.10
2010,07,10,10,01,19.10
2010,07,10,10,02,19.10
2010,07,10,10,03,19.10
2010,07,10,10,04,19.10
2010,07,10,10,05,19.10
2010,07,10,10,06,19.00
2010,07,10,10,07,18.90
2010,07,10,10,08,18.90
2010,07,10,10,09,18.90
2010,07,10,10,10,18.90
2010,07,10,10,11,18.90
2010,07,10,10,12,19.00
2010,07,10,10,13,19.10
2010,07,10,10,14,19.20
2010,07,10,10,15,19.30
2010,07,10,10,16,19.40
2010,07,10,10,17,19.40
2010,07,10,10,18,19.50
2010,07,10,10,19,19.40
2010,07,10,10,20,19.30
2010,07,10,10,21,19.30
2010,07,10,10,22,19.30
2010,07,10,10,23,19.20
2010,07,10,10,24,19.40
2010,07,10,10,25,19.40
2010,07,10,10,26,19.40
2010,07,10,10,27,19.20
2010,07,10,10,28,19.10
2010,07,10,10,29,19.10
2010,07,10,10,30,19.10
2010,07,10,10,31,19.20
2010,07,10,10,32,19.30
2010,07,10,10,33,19.40
2010,07,10,10,34,19.40
2010,07,10,10,35,19.40
2010,07,10,10,36,19.50
2010,07,10,10,37,19.50
2010,07,10,10,38,19.40
2010,07,10,10,39,19.40
2010,07,10,10,40,19.40
2010,07,10,10,41,19.30
2010,07,10,10,42,19.20
2010,07,10,10,43,19.20
2010,07,10,10,44,19.20
2010,07,10,10,45,19.10
2010,07,10,10,46,19.10
2010,07,10,10,47,19.20
2010,07,10,10,48,19.20
2010,07,10,10,49,19.10
2010,07,10,10,50,19.20
2010,07,10,10,51,19.20
2010,07,10,10,52,19.10
2010,07,10,10,53,19.20
2010,07,10,10,54,19.20
2010,07,10,10,55,19.40
2010,07,10,10,56,19.60
2010,07,10,10,57,19.60
2010,07,10,10,58,19.60
2010,07,10,10,59,19.70
2010,07,10,11,00,19.60
2010,07,10,11,01,19.60
2010,07,10,11,02,19.60
2010,07,10,11,03,19.70
2010,07,10,11,04,19.70
2010,07,10,11,05,19.70
2010,07,10,11,06,19.70
2010,07,10,11,07,19.70
2010,07,10,11,08,19.90
2010,07,10,11,09,19.90
2010,07,10,11,10,20.00
2010,07,10,11,11,20.10
2010,07,10,11,12,20.00
2010,07,10,11,13,20.10
2010,07,10,11,14,20.10
2010,07,10,11,15,20.20
2010,07,10,11,16,20.20
2010,07,10,11,17,20.20
2010,07,10,11,18,20.20
2010,07,10,11,19,20.20
2010,07,10,11,20,20.20
2010,07,10,11,21,20.30
2010,07,10,11,22,20.50
2010,07,10,11,23,20.70
2010,07,10,11,24,20.70
2010,07,10,11,25,20.70
2010,07,10,11,26,20.70
2010,07,10,11,27,20.70
2010,07,10,11,28,20.80
2010,07,10,11,29,20.90
2010,07,10,11,30,21.10
2010,07,10,11,31,21.10
2010,07,10,11,32,21.10
2010,07,10,11,33,21.10
2010,07,10,11,34,21.10
2010,07,10,11,35,21.00
2010,07,10,11,36,21.10
2010,07,10,11,37,21.10
2010,07,10,11,38,21.00
2010,07,10,11,39,21.00
2010,07,10,11,40,20.90
2010,07,10,11,41,20.90
2010,07,10,11,42,20.90
2010,07,10,11,43,20.90
2010,07,10,11,44,21.00
2010,07,10,11,45,21.10
2010,07,10,11,46,21.30
2010,07,10,11,47,21.30
2010,07,10,11,48,21.20
2010,07,10,11,49,21.20
2010,07,10,11,50,21.20
2010,07,10,11,51,21.20
2010,07,10,11,52,21.20
2010,07,10,11,53,21.20
2010,07,10,11,54,21.20
2010,07,10,11,55,21.00
2010,07,10,11,56,21.00
2010,07,10,11,57,21.10
2010,07,10,11,58,21.30
2010,07,10,11,59,21.30
2010,07,10,12,00,21.40
2010,07,10,12,01,21.30
2010,07,10,12,02,21.40
2010,07,10,12,03,21.40
2010,07,10,12,04,21.50
2010,07,10,12,05,21.50
2010,07,10,12,06,21.30
2010,07,10,12,07,21.30
2010,07,10,12,08,21.30
2010,07,10,12,09,21.30
2010,07,10,12,10,21.30
2010,07,10,12,11,21.30
2010,07,10,12,12,21.30
2010,07,10,12,13,21.30
2010,07,10,12,14,21.30
2010,07,10,12,15,21.40
2010,07,10,12,16,21.60
2010,07,10,12,17,21.70
2010,07,10,12,18,21.80
2010,07,10,12,19,21.80
2010,07,10,12,20,21.80
2010,07,10,12,21,21.70
2010,07,10,12,22,21.60
2010,07,10,12,23,21.60
2010,07,10,12,24,21.60
2010,07,10,12,25,21.60
2010,07,10,12,26,21.50
2010,07,10,12,27,21.40
2010,07,10,12,28,21.40
2010,07,10,12,29,21.50
2010,07,10,12,30,21.60
2010,07,10,12,31,21.50
2010,07,10,12,32,21.50
2010,07,10,12,33,21.60
2010,07,10,12,34,21.70
2010,07,10,12,35,21.90
2010,07,10,12,36,22.00
2010,07,10,12,37,22.20
2010,07,10,12,38,22.30
2010,07,10,12,39,22.50
2010,07,10,12,40,22.70
2010,07,10,12,41,22.90
2010,07,10,12,42,22.90
2010,07,10,12,43,22.80
2010,07,10,12,44,22.80
2010,07,10,12,45,22.80
2010,07,10,12,46,22.80
2010,07,10,12,47,22.80
2010,07,10,12,48,22.80
2010,07,10,12,49,22.60
2010,07,10,12,50,22.40
2010,07,10,12,51,22.40
2010,07,10,12,52,22.50
2010,07,10,12,53,22.50
2010,07,10,12,54,22.50
2010,07,10,12,55,22.60
2010,07,10,12,56,22.50
2010,07,10,12,57,22.40
2010,07,10,12,58,22.40
2010,07,10,12,59,22.40
2010,07,10,13,00,22.50
2010,07,10,13,01,22.60
2010,07,10,13,02,22.70
2010,07,10,13,03,22.90
2010,07,10,13,04,22.90
2010,07,10,13,05,22.90
2010,07,10,13,06,23.10
2010,07,10,13,07,23.10
2010,07,10,13,08,23.20
2010,07,10,13,09,23.20
2010,07,10,13,10,23.30
2010,07,10,13,11,23.40
2010,07,10,13,12,23.60
2010,07,10,13,13,23.70
2010,07,10,13,14,23.90
2010,07,10,13,15,24.10
2010,07,10,13,16,24.10
2010,07,10,13,17,24.30
2010,07,10,13,18,24.30
2010,07,10,13,19,24.30
2010,07,10,13,20,24.40
2010,07,10,13,21,24.50
2010,07,10,13,22,24.60
2010,07,10,13,23,24.70
2010,07,10,13,24,24.60
2010,07,10,13,25,24.50
2010,07,10,13,26,24.40
2010,07,10,13,27,24.50
2010,07,10,13,28,24.50
2010,07,10,13,29,24.60
2010,07,10,13,30,24.60
2010,07,10,13,31,24.60
2010,07,10,13,32,24.50
2010,07,10,13,33,24.50
2010,07,10,13,34,24.50
2010,07,10,13,35,24.50
2010,07,10,13,36,24.30
2010,07,10,13,37,24.20
2010,07,10,13,38,24.20
2010,07,10,13,39,24.30
2010,07,10,13,40,24.50
2010,07,10,13,41,24.50
2010,07,10,13,42,24.40
2010,07,10,13,43,24.30
2010,07,10,13,44,24.40
2010,07,10,13,45,24.50
2010,07,10,13,46,24.50
2010,07,10,13,47,24.60
2010,07,10,13,48,24.40
2010,07,10,13,49,24.10
2010,07,10,13,50,24.10
2010,07,10,13,51,24.10
2010,07,10,13,52,24.20
2010,07,10,13,53,24.20
2010,07,10,13,54,24.20
2010,07,10,13,55,24.20
2010,07,10,13,56,24.10
2010,07,10,13,57,24.20
2010,07,10,13,58,24.30
2010,07,10,13,59,24.30
2010,07,10,14,00,24.10
2010,07,10,14,01,24.00
2010,07,10,14,02,23.90
2010,07,10,14,03,24.00
2010,07,10,14,04,24.10
2010,07,10,14,05,24.20
2010,07,10,14,06,24.40
2010,07,10,14,07,24.70
2010,07,10,14,08,25.00
2010,07,10,14,09,25.20
2010,07,10,14,10,25.30
2010,07,10,14,11,25.30
2010,07,10,14,12,25.40
2010,07,10,14,13,25.40
2010,07,10,14,14,25.40
2010,07,10,14,15,25.50
2010,07,10,14,16,25.50
2010,07,10,14,17,25.40
2010,07,10,14,18,25.50
2010,07,10,14,19,25.60
2010,07,10,14,20,25.70
2010,07,10,14,21,25.80
2010,07,10,14,22,25.90
2010,07,10,14,23,26.00
2010,07,10,14,24,25.90
2010,07,10,14,25,25.90
2010,07,10,14,26,25.90
2010,07,10,14,27,25.80
2010,07,10,14,28,25.50
2010,07,10,14,29,25.20
2010,07,10,14,30,24.90
2010,07,10,14,31,24.70
2010,07,10,14,32,24.70
2010,07,10,14,33,24.80
2010,07,10,14,34,24.90
2010,07,10,14,35,25.00
2010,07,10,14,36,24.90
2010,07,10,14,37,24.90
2010,07,10,14,38,24.70
2010,07,10,14,39,24.60
2010,07,10,14,40,24.60
2010,07,10,14,41,24.70
2010,07,10,14,42,24.80
2010,07,10,14,43,24.70
2010,07,10,14,44,24.60
2010,07,10,14,45,24.50
2010,07,10,14,46,24.20
2010,07,10,14,47,24.10
2010,07,10,14,48,24.10
2010,07,10,14,49,24.30
2010,07,10,14,50,24.30
2010,07,10,14,51,24.20
2010,07,10,14,52,24.30
2010,07,10,14,53,24.50
2010,07,10,14,54,24.50
2010,07,10,14,55,24.60
2010,07,10,14,56,24.70
2010,07,10,14,57,24.80
2010,07,10,14,58,24.80
2010,07,10,14,59,24.90
2010,07,10,15,00,25.00
2010,07,10,15,01,24.90
2010,07,10,15,02,24.80
2010,07,10,15,03,24.90
2010,07,10,15,04,25.00
2010,07,10,15,05,25.10
2010,07,10,15,06,25.30
2010,07,10,15,07,25.40
2010,07,10,15,08,25.50
2010,07,10,15,09,25.70
2010,07,10,15,10,25.80
2010,07,10,15,11,25.90
2010,07,10,15,12,25.90
2010,07,10,15,13,26.00
2010,07,10,15,14,26.00
2010,07,10,15,15,26.10
2010,07,10,15,16,26.20
2010,07,10,15,17,26.30
2010,07,10,15,18,26.40
2010,07,10,15,19,26.40
2010,07,10,15,20,26.40
2010,07,10,15,21,26.30
2010,07,10,15,22,26.30
2010,07,10,15,23,26.10
2010,07,10,15,24,26.10
2010,07,10,15,25,26.00
2010,07,10,15,26,26.00
2010,07,10,15,27,26.10
2010,07,10,15,28,26.00
2010,07,10,15,29,25.90
2010,07,10,15,30,25.90
2010,07,10,15,31,25.70
2010,07,10,15,32,25.60
2010,07,10,15,33,25.60
2010,07,10,15,34,25.50
2010,07,10,15,35,25.40
2010,07,10,15,36,25.40
2010,07,10,15,37,25.40
2010,07,10,15,38,25.40
2010,07,10,15,39,25.40
2010,07,10,15,40,25.40
2010,07,10,15,41,25.40
2010,07,10,15,42,25.50
2010,07,10,15,43,25.70
2010,07,10,15,44,25.70
2010,07,10,15,45,25.80
2010,07,10,15,46,25.80
2010,07,10,15,47,25.80
2010,07,10,15,48,25.80
2010,07,10,15,49,25.80
2010,07,10,15,50,25.70
2010,07,10,15,51,25.70
2010,07,10,15,52,25.80
2010,07,10,15,53,25.90
2010,07,10,15,54,26.00
2010,07,10,15,55,26.10
2010,07,10,15,56,26.20
2010,07,10,15,57,26.20
2010,07,10,15,58,26.10
2010,07,10,15,59,26.10
2010,07,10,16,00,26.00
2010,07,10,16,01,25.90
2010,07,10,16,02,25.90
2010,07,10,16,03,25.90
2010,07,10,16,04,26.00
2010,07,10,16,05,26.00
2010,07,10,16,06,26.00
2010,07,10,16,07,26.00
2010,07,10,16,08,26.00
2010,07,10,16,09,26.10
2010,07,10,16,10,26.10
2010,07,10,16,11,26.20
2010,07,10,16,12,26.20
2010,07,10,16,13,26.30
2010,07,10,16,14,26.40
2010,07,10,16,15,26.50
2010,07,10,16,16,26.30
2010,07,10,16,17,26.10
2010,07,10,16,18,26.00
2010,07,10,16,19,26.00
2010,07,10,16,20,26.10
2010,07,10,16,21,26.20
2010,07,10,16,22,26.20
2010,07,10,16,23,26.20
2010,07,10,16,24,26.20
2010,07,10,16,25,26.20
2010,07,10,16,26,26.30
2010,07,10,16,27,26.40
2010,07,10,16,28,26.40
2010,07,10,16,29,26.60
2010,07,10,16,30,26.60
2010,07,10,16,31,26.60
2010,07,10,16,32,26.60
2010,07,10,16,33,26.60
2010,07,10,16,34,26.60
2010,07,10,16,35,26.70
2010,07,10,16,36,26.80
2010,07,10,16,37,26.80
2010,07,10,16,38,26.90
2010,07,10,16,39,26.80
2010,07,10,16,40,26.80
2010,07,10,16,41,26.80
2010,07,10,16,42,26.70
2010,07,10,16,43,26.60
2010,07,10,16,44,26.60
2010,07,10,16,45,26.60
2010,07,10,16,46,26.70
2010,07,10,16,47,26.80
2010,07,10,16,48,26.90
2010,07,10,16,49,27.00
2010,07,10,16,50,27.10
2010,07,10,16,51,27.10
2010,07,10,16,52,27.10
2010,07,10,16,53,27.20
2010,07,10,16,54,27.30
2010,07,10,16,55,27.30
2010,07,10,16,56,27.30
2010,07,10,16,57,27.30
2010,07,10,16,58,27.40
2010,07,10,16,59,27.40
2010,07,10,17,00,27.20
2010,07,10,17,01,27.10
2010,07,10,17,02,27.10
2010,07,10,17,03,27.10
2010,07,10,17,04,27.10
2010,07,10,17,05,27.10
2010,07,10,17,06,27.10
2010,07,10,17,07,27.10
2010,07,10,17,08,27.10
2010,07,10,17,09,27.10
2010,07,10,17,10,27.10
2010,07,10,17,11,27.10
2010,07,10,17,12,27.10
2010,07,10,17,13,27.10
2010,07,10,17,14,27.10
2010,07,10,17,15,27.00
2010,07,10,17,16,27.00
2010,07,10,17,17,27.10
2010,07,10,17,18,27.00
2010,07,10,17,19,26.90